Weather in Pogodayevo

Russia / Krasnoyarsk Krai     58°41′53″N   92°03′12″E
temp.,
°C
wind,
m/s
gust,
m/s
humid.,
%
clouds,
%
prec.,
mm/h
press.,
hPa
HPBL,
m
24 may, tue
tue2401:00+9nw229634 0.0 102234
04:00+7wnw23945 0.0 102452
07:00+12wnw116881 0.0 1024217
10:00+18ssw12445 0.0 1024941
13:00+21sw23335 0.0 10221897
16:00+23wsw23335 0.0 10212024
19:00+22sw1241100 0.0 1020154
22:00+16sse115489 0.0 102011
25 may, wed
wed2501:00+13se116488 0.0 102010
04:00+12se117129 0.0 102010
07:00+16s115860 0.0 1020147
10:00+22sw12390 0.0 1018742
13:00+25w24325 0.0 10161939
16:00+25nw5735100 0.0 10142472
19:00+20n496199 0.1 1015931
22:00+16nnw410745 0.0 1016460
26 may, thu
thu2601:00+12nnw378548 0.0 1016166
04:00+10nnw26942 0.0 1018136
07:00+14n38650 0.0 1018449
10:00+18n46365 0.0 10181885
13:00+20nnw45293 0.0 10172117
16:00+21nnw45253 0.0 10162398
19:00+20n353217 0.0 10161222
22:00+13nne25485 0.0 101687
27 may, fri
fri2701:00+11e31061100 0.0 1016298
04:00+10ene296886 0.0 1016246
07:00+12ene3964100 0.0 1016416
10:00+16ene45425 0.0 10151714
13:00+17e563898 0.0 10151950
16:00+17ene664065 0.0 10151945
19:00+15e58495 0.0 1016925
22:00+10e38603 0.0 1018259
28 may, sat
sat2801:00+7ene24735 0.0 101973
04:00+6e22695 0.0 102022
07:00+10ese37505 0.0 1020466
10:00+15ese45355 0.0 10191706
13:00+18se352983 0.0 10182076
16:00+19se3427100 0.0 10162210
19:00+18ese2436100 0.0 1015263
22:00+12e2448100 0.0 101670